Visibility
0.0 0.0 0.0 0.1 0.1 0.1 4.2 0.2 2.9 3.3 3.8 6.8 8.7 13.9 15.0 15.0 15.0 9.7 3.9 9.2 15.0 15.0 13.0 5.2 3.2 8.7 10.4 10.2 15.0 8.4 1.6 1.4 0.1 15.0 15.0 15.0 15.0 13.1 14.8 15.0 15.0 15.0 5.0
0.0 0.0 0.0 0.0 0.1 0.1 0.3 0.2 0.1 0.5 2.4 5.0 3.5 5.7 11.6 8.2 15.0 15.0 1.7 13.9 15.0 15.0 10.2 7.8 14.8 3.7 4.2 15.0 8.1 1.7 1.2 6.2 0.2 0.1 15.0 15.0 15.0 15.0 15.0 15.0 15.0 15.0 2.7
14.5 1.7 15.0 0.4 0.2 0.1 0.1 0.3 0.1 0.2 0.9 1.2 5.2 1.3 12.8 15.0 15.0 15.0 15.0 11.3 6.7 2.9 1.7 0.7 0.1 2.4 2.1 0.4 0.8 4.1 2.1 15.0 15.0 15.0 15.0 15.0 15.0 15.0 15.0 15.0 15.0 15.0 15.0
15.0 15.0 15.0 1.0 11.5 1.8 0.3 0.2 0.7 0.2 0.5 0.9 0.4 3.6 3.5 15.0 15.0 15.0 3.4 3.1 5.0 3.3 3.3 2.2 1.5 2.6 4.5 2.2 2.5 4.5 3.1 14.7 15.0 15.0 15.0 15.0 15.0 15.0 15.0 15.0 15.0 15.0 15.0
15.0 15.0 15.0 4.8 1.5 5.6 2.8 0.8 0.9 1.4 1.1 1.2 15.0 15.0 15.0 15.0 15.0 15.0 14.0 11.7 6.8 11.4 8.9 3.9 3.2 7.4 9.3 13.4 15.0 14.1 15.0 15.0 15.0 13.6 4.7 15.0 9.1 2.5 0.1 7.1 15.0 15.0 15.0
15.0 15.0 15.0 15.0 5.2 1.9 6.6 2.5 2.2 14.9 15.0 15.0 15.0 15.0 15.0 15.0 15.0 15.0 15.0 15.0 15.0 15.0 15.0 15.0 15.0 15.0 15.0 15.0 15.0 15.0 14.9 14.0 9.9 13.8 7.6 3.3 0.9 3.2 15.0 0.4 0.3 0.3 5.0
15.0 15.0 15.0 15.0 15.0 15.0 14.4 15.0 2.7 5.8 15.0 15.0 15.0 15.0 15.0 15.0 15.0 15.0 15.0 15.0 15.0 15.0 15.0 15.0 15.0 15.0 15.0 15.0 15.0 15.0 15.0 15.0 13.0 12.6 4.4 4.8 1.2 6.5 7.1 8.2 13.1 0.1 0.1
15.0 15.0 15.0 15.0 15.0 15.0 15.0 15.0 15.0 15.0 15.0 15.0 15.0 15.0 15.0 15.0 15.0 15.0 15.0 15.0 15.0 15.0 7.1 15.0 15.0 15.0 15.0 15.0 15.0 15.0 15.0 15.0 15.0 15.0 15.0 14.3 15.0 15.0 14.1 6.9 8.8 6.0 15.0
15.0 15.0 15.0 15.0 15.0 15.0 15.0 15.0 15.0 15.0 15.0 15.0 14.6 15.0 15.0 15.0 15.0 15.0 15.0 15.0 15.0 15.0 15.0 15.0 15.0 15.0 15.0 15.0 15.0 15.0 15.0 15.0 15.0 15.0 15.0 15.0 15.0 15.0 15.0 9.8 1.1 1.0 0.9
15.0 15.0 15.0 15.0 15.0 15.0 15.0 15.0 15.0 15.0 15.0 15.0 15.0 15.0 15.0 15.0 15.0 15.0 15.0 15.0 15.0 15.0 15.0 15.0 15.0 15.0 15.0 15.0 10.3 6.7 3.4 0.9 3.9 14.4 15.0 15.0 15.0 15.0 15.0 10.3 0.6 0.2 0.3
15.0 15.0 15.0 15.0 15.0 15.0 15.0 15.0 15.0 15.0 15.0 15.0 15.0 15.0 15.0 15.0 15.0 15.0 15.0 15.0 5.6 15.0 15.0 15.0 15.0 15.0 15.0 15.0 15.0 6.2 0.9 6.0 11.0 10.1 15.0 15.0 15.0 15.0 15.0 15.0 14.1 0.8 0.3
15.0 15.0 15.0 15.0 15.0 15.0 15.0 15.0 15.0 15.0 15.0 15.0 15.0 15.0 15.0 15.0 15.0 15.0 15.0 15.0 15.0 7.7 10.4 15.0 15.0 15.0 15.0 15.0 15.0 15.0 15.0 15.0 15.0 14.3 14.2 3.4 1.3 3.2 11.7 15.0 15.0 15.0 15.0
15.0 15.0 15.0 15.0 15.0 15.0 15.0 15.0 15.0 15.0 15.0 15.0 15.0 15.0 15.0 6.0 15.0 15.0 15.0 15.0 15.0 15.0 15.0 15.0 15.0 15.0 15.0 15.0 15.0 15.0 14.7 6.4 6.4 4.7 1.5 2.1 2.1 1.5 9.2 15.0 15.0 15.0 15.0
15.0 15.0 15.0 15.0 15.0 15.0 15.0 15.0 13.4 10.4 13.5 15.0 15.0 15.0 13.8 7.7 0.3 15.0 15.0 15.0 15.0 15.0 15.0 6.2 14.0 15.0 15.0 15.0 15.0 15.0 15.0 6.8 4.2 1.0 0.9 4.1 15.0 14.7 9.6 12.6 1.3 5.0 4.8
15.0 15.0 15.0 15.0 15.0 15.0 15.0 15.0 9.6 0.6 0.3 8.0 4.1 5.2 11.3 15.0 15.0 15.0 15.0 15.0 15.0 15.0 15.0 15.0 15.0 15.0 15.0 15.0 15.0 15.0 15.0 14.9 10.1 11.6 3.8 1.9 6.1 6.3 9.9 12.8 4.4 1.9 1.1
15.0 15.0 15.0 15.0 15.0 15.0 15.0 15.0 15.0 13.3 14.5 15.0 15.0 15.0 15.0 15.0 15.0 15.0 15.0 15.0 15.0 15.0 15.0 15.0 13.4 15.0 15.0 15.0 15.0 10.5 15.0 14.4 14.3 15.0 14.7 1.7 1.3 1.9 3.0 12.8 13.3 2.8 1.2
15.0 15.0 15.0 15.0 15.0 15.0 15.0 15.0 15.0 15.0 15.0 15.0 15.0 15.0 15.0 15.0 15.0 15.0 15.0 15.0 15.0 15.0 15.0 13.6 4.0 4.9 15.0 15.0 15.0 15.0 15.0 15.0 15.0 15.0 15.0 2.0 0.9 4.5 3.2 2.2 2.1 5.9 3.7
15.0 15.0 8.2 4.1 15.0 15.0 4.4 4.1 4.1 4.1 4.1 15.0 15.0 15.0 15.0 15.0 15.0 15.0 15.0 15.0 11.0 13.6 4.1 4.1 3.8 4.8 15.0 15.0 15.0 15.0 14.9 15.0 15.0 15.0 15.0 9.8 1.4 0.9 1.1 1.4 1.7 0.4 0.8
15.0 10.7 4.5 4.1 7.9 15.0 12.3 5.4 8.8 4.1 4.1 4.1 11.1 15.0 10.5 10.1 15.0 15.0 15.0 6.6 4.0 4.2 4.1 7.2 4.1 4.1 3.3 12.5 11.0 5.2 5.4 15.0 15.0 15.0 15.0 15.0 2.2 0.7 1.7 2.9 1.3 2.8 2.9
15.0 14.6 15.0 15.0 15.0 15.0 5.9 4.1 13.5 7.5 4.1 4.1 4.1 6.1 10.6 13.0 5.1 3.7 4.0 2.0 1.9 4.0 4.7 4.1 5.9 7.4 3.6 2.3 7.3 3.5 4.5 15.0 15.0 15.0 15.0 15.0 3.3 1.2 0.8 0.8 1.2 0.3 1.2
15.0 11.2 11.7 15.0 4.8 10.6 15.0 4.1 4.7 4.1 4.1 4.1 4.9 7.8 9.7 4.1 4.1 4.1 4.1 4.1 3.1 3.3 3.9 4.1 4.1 4.1 4.1 3.9 5.9 3.8 2.3 6.1 15.0 14.0 15.0 15.0 3.5 0.8 2.2 1.9 1.1 1.2 1.2
15.0 15.0 15.0 14.8 9.3 15.0 15.0 4.1 4.1 4.1 4.1 4.1 15.0 15.0 3.9 4.1 4.1 7.0 8.2 4.2 4.7 4.1 4.1 3.4 3.9 7.6 4.1 4.0 1.5 0.4 1.4 2.7 5.5 4.0 4.8 12.2 2.5 2.1 1.5 1.6 1.2 1.2 1.2
15.0 15.0 10.8 6.4 4.1 4.6 4.7 7.7 4.1 4.1 4.1 4.1 5.6 4.4 10.5 5.7 6.3 4.0 2.3 15.0 6.7 4.2 4.7 3.9 7.8 15.0 15.0 4.1 2.1 1.9 1.4 1.3 0.8 1.5 3.8 1.8 1.1 1.1 1.3 1.0 1.2 0.6 0.9
15.0 15.0 8.0 4.3 4.1 4.1 4.1 4.1 4.1 0.4 4.1 4.1 3.8 3.1 3.9 4.0 4.6 14.6 11.7 1.1 1.0 5.6 4.3 3.5 13.9 15.0 15.0 11.9 7.6 5.1 10.3 1.1 1.1 12.8 6.0 0.6 0.7 1.2 3.2 2.7 3.1 1.2 1.2
15.0 12.5 4.2 4.1 4.1 4.1 2.0 1.6 1.3 0.2 0.3 0.4 0.5 1.0 2.3 2.5 2.4 2.3 1.9 3.6 3.0 0.1 0.5 2.6 15.0 13.2 15.0 15.0 15.0 15.0 12.9 2.0 2.5 5.6 4.1 1.3 0.7 1.5 5.0 2.7 4.7 1.3 4.6
15.0 15.0 7.6 4.1 3.9 2.6 2.8 2.7 1.9 0.7 0.6 0.8 1.1 2.8 1.9 2.5 3.4 5.8 2.7 3.1 1.7 2.1 0.6 0.3 7.5 11.5 15.0 15.0 15.0 6.6 2.5 0.9 1.8 3.4 0.5 2.0 1.2 1.7 2.4 2.0 4.0 2.6 2.9